QPF
0.00 0.00 0.00 0.01 0.26 0.02 0.01 0.00 0.00 0.02 0.00 0.00 0.00 0.00 0.01 0.04 0.04 0.03 0.00 0.00 0.01 0.00 0.00 0.03 0.09 0.06 0.04 0.00 0.00 0.00 0.00 0.00 0.00 0.00 0.00 0.00 0.00 0.00 0.00 0.00 0.00 0.00 0.00 0.00 0.00 0.00 0.00 0.00 0.00
0.00 0.00 0.00 0.03 0.01 0.00 0.00 0.00 0.00 0.01 0.00 0.00 0.00 0.02 0.01 0.01 0.00 0.00 0.01 0.01 0.00 0.00 0.00 0.00 0.00 0.06 0.06 0.00 0.00 0.00 0.00 0.00 0.00 0.00 0.00 0.00 0.00 0.00 0.00 0.00 0.00 0.00 0.00 0.00 0.00 0.00 0.00 0.00 0.00
0.00 0.00 0.00 0.00 0.00 0.00 0.00 0.01 0.00 0.00 0.00 0.00 0.00 0.01 0.00 0.00 0.00 0.00 0.00 0.00 0.00 0.01 0.00 0.01 0.01 0.01 0.04 0.00 0.00 0.00 0.00 0.00 0.00 0.00 0.00 0.00 0.00 0.00 0.00 0.00 0.00 0.00 0.00 0.00 0.00 0.00 0.00 0.00 0.00
0.00 0.00 0.00 0.00 0.00 0.00 0.00 0.00 0.00 0.00 0.00 0.00 0.00 0.00 0.00 0.00 0.00 0.00 0.00 0.00 0.00 0.00 0.00 0.01 0.03 0.02 0.01 0.00 0.00 0.00 0.00 0.00 0.00 0.00 0.00 0.00 0.00 0.00 0.00 0.00 0.00 0.00 0.00 0.00 0.00 0.00 0.00 0.00 0.00
0.00 0.00 0.00 0.00 0.00 0.00 0.00 0.00 0.00 0.00 0.00 0.00 0.00 0.00 0.00 0.00 0.00 0.00 0.00 0.00 0.00 0.01 0.00 0.00 0.01 0.00 0.00 0.00 0.00 0.00 0.00 0.00 0.00 0.00 0.00 0.00 0.00 0.00 0.00 0.00 0.00 0.00 0.00 0.00 0.00 0.00 0.00 0.00 0.00
0.00 0.00 0.00 0.00 0.00 0.00 0.00 0.00 0.00 0.00 0.00 0.00 0.00 0.00 0.00 0.00 0.00 0.00 0.00 0.00 0.00 0.00 0.00 0.00 0.00 0.00 0.00 0.00 0.00 0.00 0.00 0.00 0.00 0.00 0.00 0.00 0.00 0.00 0.00 0.00 0.00 0.00 0.00 0.00 0.00 0.00 0.00 0.00 0.00
0.00 0.00 0.00 0.00 0.00 0.00 0.00 0.00 0.00 0.00 0.00 0.00 0.00 0.00 0.00 0.00 0.00 0.00 0.00 0.00 0.00 0.00 0.00 0.00 0.00 0.00 0.00 0.02 0.00 0.00 0.00 0.00 0.00 0.00 0.00 0.00 0.00 0.00 0.00 0.00 0.00 0.00 0.00 0.00 0.00 0.00 0.00 0.00 0.00
0.00 0.00 0.00 0.00 0.00 0.00 0.00 0.00 0.00 0.00 0.00 0.00 0.00 0.00 0.00 0.00 0.00 0.00 0.00 0.00 0.00 0.00 0.00 0.00 0.00 0.00 0.00 0.00 0.00 0.00 0.00 0.00 0.00 0.00 0.00 0.00 0.00 0.00 0.00 0.01 0.01 0.00 0.00 0.00 0.00 0.00 0.00 0.00 0.00
0.00 0.00 0.00 0.00 0.00 0.00 0.00 0.00 0.00 0.00 0.00 0.00 0.00 0.00 0.00 0.00 0.00 0.00 0.00 0.00 0.00 0.00 0.00 0.00 0.00 0.00 0.00 0.00 0.00 0.00 0.00 0.00 0.00 0.00 0.00 0.00 0.00 0.01 0.00 0.00 0.00 0.00 0.00 0.00 0.00 0.00 0.00 0.00 0.00
0.00 0.00 0.00 0.00 0.00 0.00 0.00 0.00 0.00 0.00 0.00 0.00 0.00 0.00 0.00 0.00 0.00 0.00 0.00 0.00 0.00 0.00 0.00 0.00 0.00 0.00 0.00 0.00 0.00 0.00 0.00 0.00 0.00 0.00 0.02 0.00 0.00 0.00 0.00 0.00 0.00 0.00 0.00 0.00 0.00 0.00 0.00 0.00 0.02
0.00 0.01 0.00 0.00 0.00 0.00 0.00 0.00 0.00 0.00 0.00 0.00 0.00 0.00 0.00 0.00 0.00 0.00 0.00 0.00 0.00 0.00 0.00 0.00 0.00 0.00 0.00 0.00 0.00 0.00 0.00 0.00 0.00 0.00 0.00 0.00 0.00 0.00 0.01 0.00 0.00 0.00 0.01 0.02 0.01 0.00 0.01 0.00 0.00
0.00 0.00 0.00 0.00 0.00 0.00 0.00 0.00 0.00 0.00 0.00 0.00 0.00 0.00 0.00 0.00 0.00 0.00 0.00 0.00 0.00 0.00 0.00 0.00 0.00 0.00 0.00 0.00 0.00 0.00 0.00 0.00 0.00 0.00 0.00 0.00 0.00 0.00 0.02 0.00 0.01 0.00 0.00 0.00 0.00 0.00 0.00 0.00 0.01
0.00 0.00 0.00 0.00 0.00 0.00 0.00 0.00 0.00 0.00 0.00 0.00 0.00 0.00 0.00 0.00 0.00 0.00 0.00 0.00 0.00 0.00 0.00 0.00 0.00 0.00 0.00 0.00 0.00 0.00 0.00 0.00 0.00 0.00 0.00 0.00 0.00 0.00 0.00 0.00 0.01 0.01 0.00 0.00 0.00 0.00 0.00 0.01 0.00
0.00 0.00 0.00 0.00 0.00 0.00 0.00 0.00 0.00 0.00 0.00 0.00 0.00 0.00 0.00 0.00 0.00 0.00 0.00 0.00 0.00 0.00 0.00 0.00 0.00 0.00 0.00 0.00 0.00 0.00 0.00 0.00 0.00 0.00 0.00 0.00 0.00 0.00 0.00 0.00 0.00 0.00 0.00 0.02 0.01 0.02 0.01 0.01 0.00
0.00 0.00 0.00 0.00 0.00 0.00 0.00 0.00 0.00 0.00 0.00 0.00 0.00 0.00 0.00 0.00 0.00 0.00 0.00 0.00 0.00 0.00 0.00 0.00 0.00 0.00 0.00 0.00 0.00 0.00 0.00 0.00 0.00 0.00 0.00 0.00 0.12 0.03 0.03 0.04 0.00 0.00 0.00 0.04 0.06 0.06 0.01 0.00 0.00
0.00 0.00 0.00 0.00 0.00 0.00 0.00 0.00 0.00 0.00 0.00 0.00 0.00 0.00 0.00 0.00 0.00 0.00 0.00 0.00 0.00 0.00 0.00 0.00 0.00 0.00 0.00 0.00 0.00 0.00 0.00 0.01 0.01 0.00 0.00 0.00 0.07 0.04 0.03 0.02 0.00 0.00 0.00 0.02 0.03 0.02 0.00 0.00 0.00
0.00 0.00 0.00 0.00 0.00 0.00 0.00 0.00 0.00 0.00 0.00 0.00 0.00 0.00 0.00 0.00 0.00 0.00 0.00 0.00 0.00 0.00 0.00 0.00 0.00 0.00 0.00 0.00 0.00 0.01 0.02 0.00 0.00 0.00 0.02 0.00 0.00 0.01 0.00 0.00 0.00 0.01 0.03 0.05 0.02 0.00 0.00 0.00 0.00
0.00 0.00 0.00 0.00 0.00 0.00 0.00 0.01 0.00 0.00 0.00 0.00 0.00 0.00 0.00 0.00 0.00 0.00 0.00 0.00 0.00 0.00 0.00 0.00 0.00 0.00 0.00 0.04 0.07 0.06 0.06 0.00 0.00 0.00 0.01 0.01 0.03 0.01 0.03 0.01 0.02 0.03 0.04 0.03 0.02 0.00 0.00 0.00 0.00
0.00 0.00 0.00 0.00 0.00 0.00 0.00 0.00 0.00 0.00 0.00 0.00 0.00 0.00 0.00 0.00 0.00 0.00 0.00 0.00 0.00 0.00 0.00 0.00 0.00 0.00 0.00 0.03 0.02 0.01 0.00 0.00 0.00 0.00 0.00 0.02 0.02 0.05 0.06 0.01 0.03 0.02 0.01 0.00 0.00 0.00 0.00 0.00 0.00
0.00 0.00 0.00 0.00 0.00 0.00 0.00 0.00 0.00 0.00 0.00 0.00 0.00 0.00 0.00 0.00 0.00 0.00 0.00 0.00 0.00 0.00 0.00 0.00 0.00 0.00 0.00 0.01 0.00 0.00 0.00 0.00 0.00 0.00 0.01 0.02 0.01 0.02 0.01 0.01 0.01 0.00 0.00 0.00 0.00 0.00 0.00 0.00 0.00
0.00 0.00 0.00 0.00 0.00 0.00 0.00 0.00 0.00 0.00 0.00 0.00 0.00 0.00 0.00 0.00 0.00 0.00 0.00 0.00 0.00 0.00 0.00 0.00 0.00 0.00 0.00 0.00 0.00 0.00 0.00 0.00 0.00 0.00 0.00 0.00 0.00 0.00 0.00 0.01 0.00 0.00 0.00 0.00 0.00 0.00 0.00 0.00 0.00
0.00 0.00 0.00 0.00 0.00 0.00 0.00 0.00 0.00 0.00 0.00 0.00 0.00 0.00 0.00 0.00 0.00 0.00 0.00 0.00 0.00 0.00 0.00 0.00 0.00 0.00 0.00 0.01 0.00 0.01 0.00 0.00 0.00 0.00 0.00 0.00 0.00 0.00 0.00 0.00 0.00 0.00 0.00 0.00 0.00 0.00 0.00 0.00 0.00
0.00 0.00 0.00 0.00 0.00 0.00 0.00 0.00 0.00 0.00 0.00 0.00 0.00 0.00 0.00 0.00 0.00 0.00 0.00 0.00 0.00 0.00 0.00 0.00 0.00 0.00 0.00 0.00 0.00 0.00 0.00 0.00 0.00 0.00 0.00 0.00 0.00 0.00 0.00 0.00 0.00 0.00 0.00 0.00 0.00 0.00 0.00 0.00 0.00
0.00 0.00 0.00 0.00 0.00 0.00 0.00 0.00 0.00 0.00 0.00 0.00 0.00 0.00 0.00 0.00 0.00 0.00 0.00 0.00 0.00 0.00 0.00 0.00 0.00 0.00 0.00 0.00 0.00 0.00 0.00 0.00 0.00 0.00 0.00 0.00 0.00 0.00 0.00 0.00 0.00 0.00 0.00 0.00 0.00 0.00 0.00 0.00 0.00
0.00 0.00 0.00 0.00 0.00 0.00 0.00 0.00 0.00 0.00 0.00 0.00 0.00 0.00 0.00 0.00 0.00 0.00 0.00 0.00 0.00 0.00 0.00 0.00 0.00 0.00 0.00 0.00 0.00 0.00 0.00 0.00 0.00 0.00 0.00 0.00 0.00 0.00 0.00 0.00 0.00 0.00 0.00 0.00 0.00 0.00 0.00 0.00 0.00
0.00 0.00 0.00 0.00 0.00 0.00 0.00 0.00 0.00 0.00 0.00 0.00 0.00 0.00 0.00 0.00 0.00 0.00 0.00 0.00 0.00 0.00 0.00 0.00 0.00 0.00 0.00 0.00 0.00 0.00 0.00 0.00 0.00 0.00 0.00 0.00 0.00 0.00 0.00 0.00 0.00 0.00 0.00 0.00 0.00 0.00 0.00 0.00 0.00
0.00 0.00 0.00 0.00 0.00 0.00 0.00 0.00 0.00 0.00 0.00 0.00 0.00 0.00 0.00 0.00 0.00 0.00 0.00 0.00 0.00 0.00 0.00 0.00 0.00 0.00 0.00 0.00 0.00 0.00 0.00 0.00 0.00 0.00 0.00 0.00 0.00 0.00 0.00 0.00 0.00 0.00 0.00 0.00 0.00 0.00 0.00 0.00 0.00
0.00 0.00 0.00 0.00 0.00 0.00 0.00 0.00 0.00 0.00 0.00 0.00 0.00 0.00 0.00 0.00 0.00 0.00 0.00 0.00 0.00 0.00 0.00 0.00 0.00 0.00 0.00 0.00 0.00 0.00 0.00 0.00 0.00 0.00 0.00 0.00 0.00 0.00 0.00 0.00 0.00 0.00 0.00 0.00 0.00 0.00 0.00 0.00 0.00
0.00 0.00 0.00 0.00 0.00 0.00 0.00 0.00 0.00 0.00 0.00 0.00 0.00 0.00 0.00 0.00 0.00 0.00 0.00 0.00 0.00 0.00 0.00 0.00 0.00 0.00 0.00 0.00 0.00 0.00 0.00 0.00 0.00 0.00 0.00 0.00 0.00 0.00 0.00 0.00 0.00 0.00 0.00 0.00 0.00 0.00 0.00 0.00 0.00
0.00 0.00 0.00 0.00 0.00 0.00 0.00 0.00 0.00 0.00 0.00 0.00 0.00 0.00 0.00 0.00 0.00 0.00 0.00 0.00 0.00 0.00 0.00 0.00 0.00 0.00 0.00 0.00 0.00 0.00 0.00 0.00 0.00 0.00 0.00 0.00 0.00 0.00 0.00 0.00 0.00 0.00 0.00 0.00 0.00 0.00 0.00 0.00 0.00
MSLP
1008.47 1008.31 1007.66 1007.54 1006.81 1006.02 1004.05 1003.08 1002.99 1003.63 1004.22 1004.71 1005.41 1006.54 1006.84 1007.92 1006.94 1009.96 1011.94 1012.07 1012.53 1012.90 1013.75 1014.10 1014.58 1014.74 1015.01 1015.19 1015.29 1015.52 1015.62 1015.88 1016.08 1016.25 1016.38 1016.46 1016.63 1016.79 1016.96 1016.97 1017.08 1017.03 1017.01 1017.04 1017.02 1017.04 1016.99 1017.02 1017.08
1006.84 1006.83 1005.59 1004.24 1003.45 1003.79 1002.77 1002.73 1002.97 1003.34 1003.90 1004.52 1004.97 1005.44 1006.29 1007.10 1007.97 1009.96 1011.30 1012.01 1012.21 1012.58 1013.16 1013.93 1014.92 1015.15 1015.32 1015.44 1015.53 1015.74 1015.85 1016.11 1016.40 1016.57 1016.62 1016.68 1016.88 1017.05 1017.11 1017.21 1017.28 1017.21 1017.22 1017.20 1017.18 1017.19 1017.18 1017.22 1017.23
1005.66 1005.15 1004.01 1001.78 1001.94 1001.93 1001.63 1002.50 1002.58 1003.46 1003.71 1003.89 1004.75 1005.25 1006.08 1007.74 1008.98 1010.02 1011.33 1011.80 1012.34 1013.04 1013.50 1014.62 1015.16 1015.38 1015.46 1015.66 1015.73 1015.91 1016.12 1016.42 1016.65 1016.77 1016.82 1016.96 1017.14 1017.28 1017.39 1017.37 1017.43 1017.36 1017.41 1017.37 1017.28 1017.25 1017.27 1017.32 1017.36
1004.72 1003.84 1002.42 999.88 999.92 1000.64 1001.18 1001.82 1002.59 1002.94 1003.68 1004.25 1004.95 1006.05 1006.98 1007.72 1008.73 1009.84 1011.09 1012.07 1012.75 1013.02 1013.54 1015.02 1015.34 1015.52 1015.70 1015.88 1015.99 1016.22 1016.38 1016.69 1016.89 1017.02 1017.07 1017.27 1017.40 1017.55 1017.50 1017.60 1017.52 1017.51 1017.52 1017.44 1017.37 1017.34 1017.33 1017.37 1017.42
1003.61 1001.59 999.66 999.58 1000.23 1000.45 1001.12 1001.58 1001.93 1002.46 1003.33 1003.96 1005.12 1006.49 1007.59 1008.31 1008.97 1009.95 1011.13 1012.09 1012.55 1013.01 1013.72 1014.80 1015.46 1015.69 1015.95 1016.14 1016.28 1016.49 1016.77 1017.02 1017.16 1017.27 1017.39 1017.53 1017.60 1017.58 1017.63 1017.62 1017.56 1017.57 1017.54 1017.45 1017.49 1017.44 1017.40 1017.39 1017.50
1001.78 999.89 998.36 999.08 1000.23 1000.76 1001.12 1001.67 1001.64 1002.15 1003.38 1004.46 1005.46 1006.65 1007.79 1008.89 1009.43 1009.96 1011.12 1011.77 1012.30 1012.81 1013.16 1014.79 1015.63 1015.91 1016.16 1016.36 1016.59 1016.82 1017.03 1017.21 1017.33 1017.43 1017.55 1017.66 1017.64 1017.66 1017.70 1017.66 1017.63 1017.62 1017.53 1017.52 1017.56 1017.50 1017.39 1017.42 1017.50
1001.11 999.37 998.18 999.09 1000.11 1000.51 1001.22 1001.67 1001.43 1002.44 1003.60 1004.30 1005.52 1006.31 1008.10 1008.71 1009.24 1009.70 1010.28 1010.84 1011.52 1012.55 1013.04 1014.39 1015.04 1015.84 1016.28 1016.54 1016.81 1017.05 1017.28 1017.41 1017.49 1017.58 1017.71 1017.72 1017.66 1017.66 1017.59 1017.60 1017.65 1017.65 1017.60 1017.60 1017.57 1017.50 1017.45 1017.47 1017.48
999.71 999.09 997.90 998.10 998.70 1000.33 1001.27 1001.43 1002.15 1002.62 1003.22 1004.43 1004.88 1006.31 1007.58 1008.38 1009.12 1009.44 1009.85 1010.34 1011.82 1013.11 1013.46 1014.16 1014.73 1015.32 1015.80 1016.46 1016.96 1017.25 1017.40 1017.48 1017.57 1017.66 1017.67 1017.63 1017.50 1017.36 1017.38 1017.45 1017.60 1017.58 1017.56 1017.56 1017.53 1017.45 1017.44 1017.39 1017.35
999.99 999.56 997.85 998.15 998.26 999.83 1001.17 1001.36 1002.29 1002.81 1003.94 1004.60 1004.80 1005.86 1007.48 1008.72 1009.11 1009.42 1010.03 1010.71 1012.16 1012.63 1013.68 1014.12 1014.60 1015.31 1015.28 1015.81 1016.70 1017.23 1017.36 1017.47 1017.57 1017.57 1017.61 1017.46 1016.67 1016.78 1016.72 1017.14 1017.31 1017.46 1017.48 1017.43 1017.42 1017.45 1017.32 1017.24 1017.23
999.71 1000.69 998.34 997.85 998.72 999.08 1000.62 1001.03 1002.00 1002.89 1003.91 1004.54 1005.30 1005.89 1007.85 1008.93 1009.26 1009.49 1009.90 1010.90 1012.02 1012.84 1013.30 1013.40 1013.99 1014.31 1014.87 1014.85 1016.37 1016.46 1016.57 1016.70 1016.76 1016.68 1017.06 1016.82 1015.90 1016.24 1016.62 1016.71 1017.08 1017.28 1017.25 1017.22 1017.22 1017.08 1017.08 1017.18 1016.79
998.50 999.81 997.89 998.18 998.55 998.97 1000.20 1000.63 1001.72 1002.07 1003.23 1004.15 1005.13 1006.50 1007.91 1008.74 1009.29 1009.59 1009.91 1010.51 1011.44 1012.88 1013.11 1012.47 1013.36 1014.17 1014.32 1014.57 1015.40 1015.38 1015.46 1015.53 1015.83 1016.20 1016.48 1016.17 1015.99 1016.18 1015.96 1016.04 1016.35 1016.66 1016.98 1016.75 1016.82 1016.75 1016.39 1016.52 1016.12
998.29 998.73 998.08 998.04 998.86 998.58 999.56 1000.15 1001.27 1002.07 1001.98 1003.74 1005.05 1006.48 1007.69 1008.41 1008.87 1009.29 1009.72 1010.42 1011.23 1012.10 1012.11 1012.44 1013.24 1014.11 1014.27 1014.33 1014.67 1014.50 1014.54 1014.96 1015.17 1015.67 1016.59 1016.61 1016.47 1016.20 1016.34 1015.85 1016.55 1016.62 1016.10 1016.30 1016.40 1016.31 1016.35 1016.29 1016.46
998.03 997.61 997.75 998.00 998.51 998.48 998.96 999.95 1000.81 1001.85 1002.59 1003.72 1004.94 1006.37 1007.32 1007.90 1008.49 1008.94 1009.45 1010.17 1010.97 1011.73 1012.04 1012.61 1013.47 1014.27 1014.57 1014.66 1014.38 1014.27 1014.39 1014.86 1014.85 1015.19 1015.84 1016.24 1015.85 1015.86 1016.35 1016.14 1016.29 1016.54 1016.49 1016.36 1016.19 1016.37 1016.40 1016.29 1016.30
997.60 997.57 997.53 997.79 997.80 998.59 998.83 999.71 1001.07 1001.71 1002.84 1003.68 1004.91 1005.99 1006.80 1007.36 1007.95 1008.58 1009.15 1009.85 1010.76 1011.49 1011.92 1012.55 1013.30 1014.07 1014.53 1014.82 1014.92 1014.83 1014.78 1014.53 1014.95 1014.82 1015.10 1016.15 1016.29 1015.93 1015.85 1016.58 1016.54 1016.60 1015.96 1016.42 1016.40 1016.89 1016.82 1016.70 1016.50
997.58 997.73 997.51 997.76 997.77 998.37 998.93 999.44 1000.42 1001.22 1002.66 1003.55 1004.59 1005.50 1006.18 1006.81 1007.48 1008.12 1008.86 1009.61 1010.54 1011.25 1011.70 1012.29 1013.07 1013.53 1014.38 1014.74 1015.00 1015.17 1014.65 1014.80 1014.60 1014.88 1015.11 1015.71 1016.24 1016.62 1016.58 1016.46 1016.31 1015.91 1016.12 1016.45 1016.85 1017.01 1016.56 1016.22 1015.95
997.48 997.28 996.39 996.61 997.52 998.17 998.86 998.43 999.80 1000.89 1002.13 1002.91 1004.06 1004.94 1005.72 1006.37 1006.94 1007.79 1008.56 1009.31 1010.05 1010.65 1011.34 1012.15 1012.43 1012.90 1013.90 1014.33 1014.46 1014.46 1014.33 1014.81 1014.61 1014.55 1015.14 1015.48 1016.00 1016.59 1016.69 1016.22 1016.36 1015.92 1015.95 1016.26 1016.30 1016.61 1016.16 1015.64 1015.56
996.89 996.08 995.87 996.24 997.15 997.95 998.55 999.97 999.42 1000.54 1001.41 1002.14 1003.37 1004.24 1005.09 1005.90 1006.56 1007.25 1007.99 1008.88 1009.48 1010.33 1011.01 1011.70 1012.15 1012.39 1013.16 1013.92 1014.07 1014.28 1014.13 1014.52 1014.39 1014.88 1014.69 1015.16 1015.66 1015.81 1016.15 1015.52 1015.46 1015.79 1016.10 1016.71 1016.49 1016.51 1015.96 1016.04 1015.96
995.59 995.62 994.82 995.17 996.68 997.60 998.15 998.80 998.84 1000.10 1000.70 1001.41 1002.51 1003.47 1004.41 1005.13 1005.87 1006.63 1007.43 1008.28 1009.05 1009.78 1010.67 1011.50 1011.96 1012.43 1012.94 1013.44 1014.13 1014.18 1014.81 1014.58 1014.02 1014.10 1014.51 1014.85 1015.30 1015.33 1015.59 1015.47 1015.80 1016.24 1016.36 1016.22 1016.48 1016.54 1016.48 1016.57 1016.18
995.09 994.54 994.30 994.43 995.46 997.03 997.57 997.77 998.50 999.56 1000.17 1000.59 1001.47 1002.64 1003.47 1004.26 1005.05 1005.98 1006.94 1007.64 1008.49 1009.25 1010.23 1011.09 1011.78 1012.31 1012.85 1013.42 1013.80 1014.02 1013.72 1013.74 1013.94 1013.84 1014.36 1014.87 1015.11 1015.61 1015.89 1015.70 1015.76 1016.23 1016.09 1015.98 1016.43 1016.51 1016.32 1016.24 1015.86
994.98 994.08 993.82 994.09 994.88 996.20 996.71 996.91 997.40 998.60 999.49 999.98 1000.38 1001.38 1002.41 1003.26 1004.09 1005.19 1006.18 1006.95 1007.75 1008.66 1009.48 1010.51 1011.29 1011.89 1012.60 1012.92 1013.36 1012.71 1012.72 1012.61 1012.76 1013.13 1013.89 1014.28 1014.80 1014.96 1015.15 1015.40 1015.52 1015.72 1015.45 1016.08 1016.62 1016.90 1016.62 1015.93 1016.12
994.86 993.84 993.39 993.67 994.40 995.70 996.10 996.46 996.44 997.20 998.41 999.22 999.73 1000.13 1001.06 1001.94 1002.81 1003.98 1005.26 1006.20 1006.99 1007.81 1008.76 1009.66 1010.58 1011.28 1011.96 1012.31 1012.74 1012.93 1012.91 1012.88 1012.83 1012.98 1013.32 1013.90 1014.42 1014.50 1015.16 1015.44 1015.35 1015.69 1016.10 1015.74 1016.62 1016.77 1016.85 1016.16 1016.04
994.20 994.36 993.76 993.63 995.01 995.42 995.80 994.86 995.13 995.94 996.75 997.78 998.65 999.14 999.64 1000.60 1001.72 1002.67 1003.96 1005.17 1005.94 1006.86 1008.02 1008.92 1009.93 1010.75 1011.44 1012.01 1011.93 1012.04 1012.25 1012.28 1012.24 1012.56 1012.49 1013.16 1013.88 1014.11 1014.50 1014.92 1015.30 1015.81 1015.85 1015.95 1016.38 1016.57 1017.00 1016.95 1016.04
994.12 994.10 994.10 993.74 993.60 994.19 994.54 994.80 993.49 994.65 994.89 995.82 996.95 997.69 998.49 999.15 1000.33 1001.33 1002.34 1003.76 1004.96 1005.98 1006.96 1008.05 1009.14 1010.05 1010.65 1011.21 1011.72 1011.65 1012.09 1011.77 1011.94 1012.28 1012.86 1013.66 1014.05 1014.24 1014.48 1014.85 1015.34 1016.04 1016.13 1016.28 1016.58 1016.82 1017.11 1016.81 1016.81
994.55 994.17 993.90 993.95 993.66 993.49 993.53 994.34 992.82 994.89 993.49 994.06 994.88 996.05 997.15 998.00 998.95 1000.22 1001.33 1002.42 1003.70 1004.89 1005.90 1006.91 1008.11 1009.17 1010.03 1010.54 1011.18 1011.51 1011.37 1011.78 1011.72 1012.16 1012.74 1013.24 1013.50 1014.18 1014.46 1014.76 1015.48 1015.88 1016.12 1016.37 1016.60 1016.92 1017.13 1017.18 1017.16
994.48 993.97 993.29 993.01 992.60 992.46 993.23 992.71 994.39 991.75 992.36 993.16 993.53 994.11 995.14 996.67 997.80 998.92 1000.07 1001.07 1002.36 1003.57 1004.77 1005.88 1007.02 1008.15 1009.07 1009.82 1010.33 1011.09 1011.39 1011.68 1011.91 1012.02 1012.47 1012.46 1012.61 1013.15 1014.09 1014.84 1015.41 1015.74 1016.11 1016.04 1016.57 1017.09 1017.12 1017.14 1017.00
993.13 992.88 992.09 991.80 991.75 991.87 991.95 990.93 990.85 991.30 991.59 992.07 992.62 992.88 993.47 995.13 996.58 997.69 998.85 1000.04 1001.14 1002.49 1003.78 1004.95 1005.90 1007.10 1008.14 1008.92 1009.57 1010.31 1011.03 1011.35 1011.61 1011.83 1011.74 1012.24 1012.07 1012.52 1013.44 1014.43 1014.96 1015.41 1015.66 1016.09 1016.40 1016.75 1017.05 1016.93 1017.14
992.22 991.86 992.21 991.94 991.61 991.24 990.52 990.47 990.90 990.98 991.17 991.97 992.53 992.72 992.96 993.76 995.25 996.50 997.67 998.99 1000.17 1001.43 1002.58 1003.78 1005.01 1006.19 1007.15 1007.93 1008.78 1009.50 1010.20 1010.63 1010.73 1011.08 1011.50 1011.66 1011.96 1012.12 1013.12 1013.94 1014.58 1015.01 1015.24 1015.73 1016.46 1016.62 1016.72 1017.02 1017.01
991.76 991.88 991.72 990.96 990.23 989.60 989.58 989.33 989.38 990.04 991.21 991.68 991.92 992.18 992.28 992.98 993.90 995.24 996.47 997.81 999.17 1000.35 1001.71 1003.03 1004.22 1005.22 1006.28 1007.09 1007.75 1008.47 1009.16 1009.88 1010.32 1010.45 1010.85 1011.39 1011.67 1012.25 1012.56 1013.58 1014.11 1014.60 1014.98 1015.27 1016.10 1016.54 1016.55 1016.82 1017.01
991.53 990.56 990.43 990.96 990.63 989.57 989.06 988.34 988.65 989.30 990.38 991.02 991.41 991.60 991.50 992.06 992.77 994.12 995.30 996.63 998.07 999.33 1000.55 1001.88 1003.14 1004.29 1005.34 1006.12 1006.67 1007.42 1008.16 1008.96 1009.62 1009.85 1010.35 1011.01 1011.58 1012.09 1012.57 1013.27 1013.68 1014.25 1014.40 1015.56 1015.74 1015.87 1016.14 1016.50 1016.78
990.92 990.40 990.43 989.68 990.16 989.87 989.06 987.71 987.90 988.65 989.52 990.28 990.32 990.33 990.64 991.15 991.56 992.69 994.05 995.36 996.76 998.10 999.23 1000.34 1001.73 1002.95 1004.01 1004.89 1005.69 1006.39 1007.20 1007.92 1008.51 1009.11 1009.52 1010.38 1011.13 1011.64 1012.07 1012.71 1013.19 1013.51 1013.73 1012.27 1013.05 1014.47 1015.51 1016.05 1016.14
Thickness
5815 5816 5822 5810 5770 5779 5795 5808 5825 5807 5805 5819 5819 5793 5792 5771 5789 5757 5780 5784 5781 5778 5770 5767 5765 5765 5761 5761 5761 5759 5758 5757 5756 5756 5756 5756 5754 5752 5750 5750 5749 5750 5751 5751 5751 5751 5751 5751 5751
5830 5828 5833 5824 5800 5772 5797 5819 5804 5813 5821 5825 5821 5814 5799 5786 5802 5787 5780 5786 5785 5782 5777 5772 5765 5762 5761 5761 5760 5758 5759 5758 5757 5756 5757 5756 5754 5751 5750 5750 5749 5751 5751 5751 5751 5751 5752 5752 5752
5842 5844 5824 5826 5808 5788 5800 5811 5819 5820 5827 5824 5813 5821 5809 5788 5795 5790 5791 5791 5786 5781 5777 5769 5765 5763 5763 5761 5761 5761 5760 5758 5756 5756 5757 5755 5752 5751 5751 5750 5750 5751 5751 5751 5751 5752 5752 5752 5752
5841 5838 5843 5836 5822 5829 5822 5825 5827 5823 5825 5826 5818 5795 5810 5816 5801 5801 5798 5792 5786 5784 5780 5768 5766 5765 5764 5762 5762 5760 5760 5758 5757 5756 5756 5754 5752 5751 5752 5751 5752 5752 5752 5752 5753 5752 5753 5753 5753
5851 5846 5841 5831 5820 5833 5835 5838 5838 5823 5822 5821 5818 5793 5792 5809 5814 5808 5799 5793 5789 5786 5780 5772 5767 5766 5764 5762 5761 5760 5758 5757 5756 5755 5754 5753 5752 5753 5753 5753 5753 5753 5753 5754 5753 5753 5754 5754 5753
5835 5863 5851 5824 5818 5831 5837 5841 5840 5832 5826 5818 5809 5798 5795 5811 5807 5808 5802 5797 5794 5790 5787 5774 5767 5765 5763 5761 5760 5759 5758 5757 5756 5755 5754 5753 5753 5754 5754 5755 5755 5754 5755 5754 5753 5753 5755 5754 5753
5833 5845 5852 5838 5820 5824 5829 5845 5836 5827 5818 5814 5819 5795 5798 5805 5813 5814 5811 5808 5803 5793 5789 5778 5773 5767 5764 5762 5760 5759 5757 5757 5756 5755 5754 5754 5756 5756 5757 5756 5755 5754 5754 5754 5753 5754 5754 5753 5754
5863 5859 5860 5859 5842 5819 5838 5842 5841 5830 5821 5835 5833 5793 5788 5807 5816 5817 5815 5812 5800 5790 5787 5781 5777 5773 5769 5764 5761 5759 5758 5757 5757 5756 5756 5757 5759 5760 5759 5758 5756 5756 5756 5755 5755 5755 5754 5754 5754
5875 5830 5846 5850 5852 5835 5844 5833 5842 5846 5824 5825 5830 5821 5815 5814 5816 5811 5806 5804 5794 5793 5786 5783 5780 5774 5774 5771 5765 5761 5760 5759 5759 5759 5759 5760 5765 5764 5764 5762 5760 5758 5757 5757 5756 5755 5756 5756 5756
5850 5794 5843 5875 5863 5852 5844 5841 5836 5827 5818 5815 5817 5827 5818 5810 5807 5803 5801 5794 5790 5787 5789 5792 5786 5784 5780 5781 5769 5768 5767 5767 5767 5767 5765 5766 5773 5770 5767 5766 5764 5762 5761 5760 5759 5759 5758 5757 5759
5865 5825 5871 5870 5875 5870 5849 5844 5846 5832 5813 5820 5811 5811 5810 5807 5804 5803 5803 5802 5796 5789 5791 5802 5795 5787 5787 5786 5779 5779 5778 5778 5776 5772 5770 5772 5774 5772 5773 5773 5771 5768 5765 5765 5764 5763 5765 5763 5765
5851 5859 5873 5876 5869 5874 5851 5858 5838 5836 5839 5838 5830 5821 5812 5806 5804 5804 5803 5802 5799 5796 5801 5803 5797 5790 5789 5789 5786 5787 5787 5783 5781 5777 5770 5770 5771 5774 5772 5777 5771 5769 5772 5770 5768 5769 5767 5766 5763
5859 5873 5878 5877 5871 5873 5872 5850 5842 5836 5845 5843 5834 5821 5813 5812 5810 5811 5811 5810 5806 5799 5802 5801 5797 5791 5789 5788 5790 5791 5789 5785 5785 5782 5777 5774 5777 5778 5774 5776 5774 5772 5771 5771 5771 5768 5767 5767 5766
5876 5874 5874 5875 5875 5868 5860 5853 5844 5843 5846 5837 5828 5819 5818 5817 5815 5814 5812 5809 5806 5804 5804 5804 5799 5794 5790 5789 5788 5788 5788 5789 5786 5787 5784 5777 5775 5779 5780 5775 5775 5774 5776 5772 5771 5766 5766 5765 5764
5873 5851 5865 5865 5869 5860 5866 5842 5835 5852 5844 5832 5826 5823 5823 5822 5822 5817 5817 5812 5810 5808 5808 5805 5802 5799 5793 5790 5788 5787 5790 5788 5789 5788 5786 5781 5777 5775 5775 5775 5777 5780 5776 5772 5768 5766 5768 5769 5769
5853 5858 5847 5871 5867 5866 5859 5832 5851 5858 5843 5832 5829 5826 5824 5825 5825 5824 5823 5820 5817 5814 5810 5808 5809 5807 5798 5795 5793 5793 5794 5791 5791 5791 5788 5784 5780 5775 5775 5778 5777 5780 5777 5774 5773 5769 5770 5773 5772
5848 5835 5849 5851 5873 5860 5853 5794 5854 5860 5849 5838 5833 5830 5827 5825 5826 5828 5828 5824 5822 5817 5814 5811 5811 5810 5804 5799 5796 5794 5795 5793 5794 5791 5792 5787 5784 5782 5779 5784 5783 5779 5776 5770 5771 5768 5772 5767 5767
5835 5841 5866 5856 5861 5858 5848 5837 5858 5857 5852 5845 5839 5836 5831 5829 5829 5833 5832 5830 5826 5823 5818 5813 5812 5809 5806 5803 5797 5796 5791 5793 5798 5798 5795 5792 5788 5787 5784 5784 5780 5776 5775 5775 5769 5767 5767 5763 5765
5866 5867 5863 5878 5878 5855 5848 5852 5853 5856 5853 5849 5845 5840 5837 5835 5841 5840 5835 5834 5829 5826 5819 5814 5810 5809 5805 5799 5795 5793 5795 5799 5799 5800 5796 5792 5789 5784 5781 5781 5779 5774 5774 5774 5769 5767 5765 5763 5768
5857 5863 5866 5882 5882 5862 5858 5855 5868 5859 5853 5855 5853 5847 5844 5843 5843 5840 5838 5836 5832 5827 5823 5817 5813 5810 5805 5804 5800 5807 5807 5809 5809 5805 5799 5795 5789 5787 5783 5781 5779 5777 5779 5771 5765 5759 5758 5763 5763
5847 5857 5870 5870 5879 5870 5862 5840 5862 5870 5864 5861 5862 5863 5857 5851 5847 5845 5840 5838 5837 5831 5826 5821 5817 5814 5810 5809 5806 5805 5806 5805 5804 5803 5801 5795 5789 5787 5780 5777 5776 5774 5770 5770 5761 5759 5754 5755 5758
5832 5866 5874 5876 5836 5817 5861 5828 5857 5868 5862 5861 5860 5863 5864 5861 5859 5856 5848 5842 5840 5837 5833 5828 5822 5816 5813 5810 5809 5806 5803 5798 5804 5803 5805 5799 5790 5786 5782 5778 5774 5769 5769 5766 5762 5759 5752 5750 5751
5841 5872 5865 5871 5866 5856 5851 5836 5863 5873 5862 5865 5869 5871 5872 5873 5868 5862 5859 5852 5847 5844 5838 5832 5825 5820 5817 5814 5810 5809 5802 5806 5806 5802 5796 5789 5785 5782 5780 5776 5771 5765 5763 5761 5757 5753 5748 5748 5743
5862 5857 5862 5864 5860 5819 5854 5832 5857 5832 5873 5881 5887 5881 5878 5878 5876 5871 5868 5864 5854 5850 5843 5838 5829 5821 5819 5816 5812 5807 5806 5801 5800 5796 5790 5787 5786 5781 5778 5774 5768 5763 5759 5755 5752 5748 5744 5742 5740
5839 5834 5811 5811 5817 5815 5858 5849 5826 5896 5896 5890 5891 5895 5893 5886 5880 5875 5869 5865 5859 5852 5846 5841 5833 5823 5821 5817 5815 5808 5804 5800 5795 5793 5789 5790 5789 5786 5778 5771 5766 5761 5756 5754 5747 5741 5739 5738 5737
5828 5835 5815 5785 5805 5827 5866 5839 5866 5902 5907 5908 5905 5910 5908 5893 5887 5882 5878 5872 5866 5858 5850 5843 5836 5827 5823 5820 5815 5812 5804 5800 5797 5795 5795 5790 5791 5789 5782 5773 5767 5760 5754 5748 5744 5740 5735 5735 5731
5828 5819 5855 5835 5849 5835 5856 5869 5884 5891 5892 5894 5891 5898 5901 5900 5892 5886 5884 5879 5872 5864 5856 5849 5839 5831 5826 5822 5817 5813 5808 5803 5800 5799 5797 5796 5793 5792 5782 5774 5767 5759 5755 5747 5738 5735 5733 5728 5726
5828 5853 5820 5837 5806 5808 5842 5852 5853 5872 5868 5879 5884 5890 5901 5903 5897 5893 5889 5883 5878 5871 5863 5854 5844 5835 5828 5824 5821 5817 5812 5807 5804 5805 5800 5795 5794 5787 5785 5773 5765 5757 5750 5748 5735 5728 5727 5721 5718
5810 5821 5835 5840 5836 5816 5817 5843 5895 5882 5876 5872 5881 5892 5904 5904 5903 5896 5893 5889 5883 5876 5868 5858 5849 5839 5832 5828 5826 5822 5817 5812 5808 5807 5803 5796 5791 5786 5781 5771 5766 5757 5751 5736 5728 5719 5718 5715 5711
5820 5819 5828 5822 5804 5828 5837 5849 5910 5900 5891 5888 5894 5907 5912 5912 5914 5906 5900 5893 5886 5879 5874 5866 5857 5847 5841 5836 5832 5827 5823 5817 5812 5809 5806 5798 5790 5786 5779 5772 5763 5756 5750 5758 5744 5727 5715 5712 5708